{"data":{"norad_id":66967,"epoch":"2026-05-25T03:52:22.101024Z","epoch_age_seconds":54909,"freshness":"FRESH","line1":"1 66967U 25288J   26145.16136691  .00020591  00000+0  75574-3 0  9997","line2":"2 66967  42.9983 311.5061 0000421 331.7832  28.2997 15.27578231 26985","mean_motion":15.27578231,"eccentricity":4.21e-5,"inclination_deg":42.9983,"raan_deg":311.5061,"arg_perigee_deg":331.7832,"mean_anomaly_deg":28.2997,"bstar":0.00075574,"rev_number":2698,"period_min":94.266857878521,"perigee_km":482.76553690951,"apogee_km":483.34324922481,"semimajor_km":6861.1913930672,"source":"CELESTRAK","updated_at":"2026-05-25T13:38:21.394738Z"}}